Location: Carbonear
(47.7333°N, 53.2500°W)
Time: 10:47:55
(UTC+00:00)

SL-16 DEB - Visible Passes

Search period start: 05 June 2023 00:00
Search period end: 15 June 2023 00:00
Orbit: 778 x 787 km, 71.0° (Epoch: 04 June)

Date Brightness Start Highest point End Pass type
(mag) Time Alt. Az. Time Alt. Az. Time Alt. Az.
07 Jun ? 06:40:04 10° SSE 06:44:12 23° ESE 06:48:22 10° NE visible
08 Jun ? 06:08:27 10° SE 06:11:35 16° E 06:14:43 10° ENE visible
09 Jun ? 05:38:17 10° ESE 05:39:01 10° E 05:39:45 10° E visible
10 Jun ? 06:42:48 10° S 06:47:55 49° ESE 06:53:06 10° NE visible
11 Jun ? 06:10:25 10° S 06:15:10 34° ESE 06:19:58 10° NE visible
12 Jun ? 05:38:19 10° SSE 05:42:29 23° ESE 05:46:39 10° NE visible
13 Jun ? 05:06:39 10° SE 05:09:51 16° E 05:13:01 10° ENE visible
13 Jun ? 06:46:30 10° SSW 06:51:52 81° WNW 06:57:17 10° NNE visible
14 Jun ? 04:36:20 10° ESE 04:37:16 10° E 04:38:11 10° E visible
14 Jun ? 06:13:57 12° SSW 06:18:59 72° ESE 06:24:21 10° NNE visible
